This is the latest recevied weather packets stored in our database for station/object WP3OF-2. If no packets are shown the sender has not sent any weather packets the latest 10 day(s).
| Time | Temp. | Humidity | Pressure | Rain* | Wind** | Luminosity | Snow |
|---|---|---|---|---|---|---|---|
| 1788119801 | 21.11° C | 99% | 1023 hPa | 0 mm | - | 151 W/m² | - |
| 1788119499 | 21.11° C | 99% | 1023 hPa | 0 mm | - | 151 W/m² | - |
| 1788119197 | 20.56° C | 99% | 1022.6 hPa | 0 mm | - | 128 W/m² | - |
| 1788118892 | 20.56° C | 99% | 1022.6 hPa | 0 mm | - | 115 W/m² | - |
| 1788118587 | 20° C | 99% | 1022.6 hPa | 0 mm | - | 95 W/m² | - |
| 1788118287 | 20° C | 99% | 1022.6 hPa | 0 mm | - | 92 W/m² | - |
| 1788117983 | 20° C | 99% | 1022.6 hPa | 0 mm | - | 80 W/m² | - |
| 1788117677 | 20° C | 99% | 1022.6 hPa | 0 mm | - | 72 W/m² | - |
| 1788117373 | 20° C | 99% | 1022.6 hPa | 0 mm | - | 62 W/m² | - |
| 1788117068 | 20° C | 99% | 1022.3 hPa | 0 mm | - | 56 W/m² | - |
| 1788116764 | 19.44° C | 99% | 1022.3 hPa | 0 mm | - | 50 W/m² | - |
| 1788116458 | 20° C | 99% | 1022.6 hPa | 0 mm | - | 43 W/m² | - |
| 1788116156 | 19.44° C | 99% | 1023.4 hPa | 0 mm | - | 62 W/m² | - |
| 1788115853 | 19.44° C | 99% | 1023.4 hPa | 0 mm | - | 62 W/m² | - |
| 1788115551 | 19.44° C | 99% | 1023.4 hPa | 0 mm | - | 77 W/m² | - |
| 1788115241 | 19.44° C | 99% | 1023.7 hPa | 1.78 mm | - | 130 W/m² | - |
| 1788114935 | 20° C | 99% | 1024.1 hPa | 3.05 mm | - | 147 W/m² | - |
| 1788114632 | 20.56° C | 99% | 1024.1 hPa | 6.1 mm | - | 104 W/m² | - |
| 1788114326 | 21.67° C | 99% | 1024.1 hPa | 6.1 mm | - | 79 W/m² | - |
| 1788114023 | 22.22° C | 99% | 1024.9 hPa | 9.65 mm | - | 30 W/m² | - |
| 1788113719 | 22.22° C | 99% | 1024.5 hPa | 16.76 mm | - | 54 W/m² | - |
| 1788113418 | 22.22° C | 99% | 1024.9 hPa | 21.08 mm | - | 64 W/m² | - |
| 1788113118 | 22.22° C | 99% | 1024.9 hPa | 1.78 mm | - | 38 W/m² | - |
| 1788112817 | 22.22° C | 99% | 1024.9 hPa | 1.78 mm | - | 38 W/m² | - |
| 1788112517 | 22.78° C | 99% | 1024.9 hPa | 1.27 mm | - | 51 W/m² | - |
* Rain latest hour (hover to see other rain measurements)
** Current wind speed in m/s (hover to see current wind gust speed)